Location: Newark
(55.7167°N, 12.5667°E)
Time: 05:13:35
(UTC+00:00)

N. Korean satellite - Pass Details

Date: 13 December 2019
Orbit: 454 x 507 km, 97.2° (Epoch: 24 January)

Event Time Altitude Azimuth Distance (km) Brightness Sun altitude
Rises 17:31:37 0° 220° (SW) 2,601 11.0 -22.8°
Reaches altitude 10° 17:35:12 10° 258° (WSW) 1,716 10.4 -23.3°
Maximum altitude 17:36:18 11° 275° (W) 1,649 10.3 -23.4°
Drops below altitude 10° 17:37:23 10° 292° (WNW) 1,714 10.1 -23.6°
Sets 17:40:58 0° 330° (NNW) 2,592 10.6 -24.1°
